TIANLIAN 2-01

Last updated on Jan. 17, 2020, 4:31 a.m. UTC

1 44076U 19017A   20016.09658351 -.00000138  00000-0  00000+0 0  9997
2 44076   2.3665 287.8868 0029000 213.2961  88.6086  1.00272888  3103
UTC
Height (km)
Latitude
Longitude
Inclination
Orbital Period
UTC large
Height (km)
Speed (km/s)
/
Latitude / Longitude
Inclination (degrees)
Orbital Period (minutes)
Azimuth
Elevation
Range (km)
Doppler Factor
iOS Compass Heading
iOS Angle

Next 30 passes for location: Hong Kong

Rise time Rise Azimuth (degrees) Set time Set Azimuth (degrees) Duration Max altitude (degrees)

No matching passes for this satellites